Find Starlink 4499

NORAD ID: 53402 Int'l Des: 2022-097 Owner: SPXS Country: US Constellation: starlink operational
LEOCIRCULAR

現在のビュー

3D地球を読み込み中...

About Starlink 4499

Starlink 4499 (NORAD 53402) is a starlink constellation satellite (v1.5) launched Aug 10, 2022 by SPXS of US. It operates in LEO, CIRCULAR orbit with a mass of 297.00 kg.

Starlink 4499について

説明を読み込み中...

次回通過

Passes for default location (London). Set your location on the main map for personalized predictions.

高度履歴

Loading altitude history...

軌道要素

1 53402U 22097Q 26166.36865670 .00000530 00000-0 51379-4 0 9993
2 53402 53.1608 45.5410 0001417 100.1487 259.9665 15.08829815213265
Epoch: Jun 15, 2026 • Age: 9 hours

現在のステータス

高度 548.6 km
速度 7.59 km/s
衛星直下点 -27.22°S, 156.29°W
打ち上げ日 Aug 10, 2022
運用期間 3.8 years
タイプ internet

技術仕様

分類 Payload
質量 297.00 kg
乾燥質量 275.00 kg
総質量 297.00 kg
長さ 0.20 m
直径 2.80 m
スパン 9.00 m
形状 Box + pan
製造者 SPXS
バスタイプ Starlink
フェーズステータス In Orbit
所有者/国 SPXS/US

Most Searched